Ohio University (UNI)

 

Airport Diagram
No Airport Diagram Available
Current Weather/Forecast (IFR Conditions)
METAR KUNI 280415Z AUTO 35007KT 2 1/2SM -SN OVC010 M02/M02 A3025 RMK AO2 T10241024
TAF

Airport Information

All Charts
General
Chart Name View
TAKEOFF MINIMUMS
ALTERNATE MINIMUMS
TAKEOFF MINIMUMS
ALTERNATE MINIMUMS

Approaches
Chart Name Download
ILS OR LOC RWY 25
RNAV (GPS) RWY 07
RNAV (GPS) RWY 25
NDB RWY 25
ILS OR LOC RWY 25
RNAV (GPS) RWY 07
RNAV (GPS) RWY 25
NDB RWY 25


Airport Statistics
Departures Arrivals Local
All Collected Stats since June 2016: 16 19 0
2021 Stats: 1 2 0
January Stats: 1 2 0

Inbound Traffic (Arrivals) - 0

No inbound traffic.


Outbound Traffic (Departures) - 0

No outbound traffic.


Local Traffic (Pattern) - 0

No local traffic.